Location: Bergnershof
(48.9468°N, 10.9431°E)
Time: 23:57:33
(UTC+00:00)

Gbstr 26 Del rocket - Pass Details

Date: 03 March 2021
Orbit: 492 x 1264 km, 51.8° (Epoch: 13 April)

Event Time Altitude Azimuth Distance (km) Brightness Sun altitude
Rises 19:54:45 0° 286° (WNW) 2,945 7.8 -28.4°
Reaches altitude 10° 19:56:52 10° 288° (WNW) 2,129 6.7 -28.7°
Enters shadow 20:01:10 66° 321° (NW) 850 3.8 -29.3°
